Regional Weather Roundup
Issued by NWS

Home | Current Version | Previous Version | Graphics & Text | Print | Product List | Glossary On
Versions: 1 2 3 4 5 6 7 8 9 10 11 12 13 14 15 16 17 18 19 20 21 22 23 24 25 26 27 28 29 30 31 32 33 34 35 36 37 38 39 40 41 42 43 44 45 46 47 48 49 50
000
ASUS43 KMPX 261110
RWRMN
WEATHER ROUNDUP FOR MINNESOTA
NATIONAL WEATHER SERVICE TWIN CITIES/CHANHASSEN MN
600 AM CDT FRI MAY 26 2017


NOTE: "FAIR" INDICATES FEW OR NO CLOUDS BELOW 12,000 FEET WITH NO
SIGNIFICANT WEATHER AND/OR OBSTRUCTIONS TO VISIBILITY. N/A MEANS
CURRENT SKY AND/OR WEATHER CONDITIONS ARE NOT AVAILABLE.

MNZ060>063-068>070-261200-
   Twin Cities Metro

CITY           SKY/WX    TMP DP  RH WIND       PRES   REMARKS
TWIN CITIES    CLOUDY    61  52  72 SE8       29.70R
ST PAUL        CLOUDY    60  55  83 SE8       29.71R
CRYSTAL        CLOUDY    61  50  67 SE8       29.68S
BLAINE         CLOUDY    63  55  77 SE8       29.69S
LAKEVILLE      CLOUDY    57  52  82 CALM      29.70S
EDEN PRAIRIE   CLOUDY    61  52  72 SE8       29.68R
SOUTH ST PAUL  CLOUDY    60  54  80 SE5       29.70S
LAKE ELMO      CLOUDY    61  54  77 SE6       29.72S
$$
MNZ001>005-007-008-013>017-022>024-027-028-261200-
   Northwest Minnesota

CITY           SKY/WX    TMP DP  RH WIND       PRES   REMARKS
BEMIDJI        CLEAR     51  49  96 SE5       29.63S
HALLOCK        CLOUDY    46  45  93 S5        29.58R
ROSEAU         PTCLDY    52  46  82 S7        29.59R
WARROAD        PTCLDY    55  52  88 S5        29.60R
THIEF RVR FALL CLEAR     50  49  96 S6        29.61R
CROOKSTON      CLEAR     46  45  93 S5        29.61R FOG
FOSSTON        CLEAR     52  48  87 S9        29.63R
DETROIT LAKES  CLOUDY    52  50  93 CALM      29.65R
MOORHEAD       CLEAR     48  48 100 S3        29.64R
PARK RAPIDS    PTCLDY    54  49  83 SE7       29.64R
MAHNOMEN       FAIR      49  48  95 S7        29.62S
$$
MNZ006-009>011-018-025>026-261200-
   North Central Minnesota

CITY           SKY/WX    TMP DP  RH WIND       PRES   REMARKS
BAUDETTE       CLOUDY    57  51  80 S8        29.62R
FLAG ISLAND    CLOUDY    55  52  88 S16       29.58R
INTL FALLS     CLOUDY    53  51  93 SE7       29.65S
WASKISH        PTCLDY    55  52  88 S7        29.63S
BIG FORK       CLOUDY    54  52  94 S3        29.67R
LONGVILLE      CLOUDY    54  52  94 CALM      29.66S
GRAND RAPIDS   CLOUDY    52  50  93 SE7       29.70R
CRANE LAKE     CLOUDY    50  48  93 CALM      29.72S
ORR            CLOUDY    52  48  87 SE5       29.66F
COOK           LGT RAIN  52  50  93 CALM      29.70S
WALKER         FAIR      54  51  91 SE3       29.65R
$$
MNZ012-019>021-037-261200-
   Northeast Minnesota

CITY           SKY/WX    TMP DP  RH WIND       PRES   REMARKS
DULUTH         CLOUDY    49  47  93 E10       29.72F
ELY            CLOUDY    52  48  87 SE7       29.73S
HIBBING        CLOUDY    50  49  96 E5        29.70S
EVELETH        MOCLDY    53  50  89 CALM      29.73R
DULUTH HARBOR  CLOUDY    46  43  87 NE10      29.75S
TWO HARBORS    CLOUDY    52  46  82 CALM      29.74R
SILVER BAY     DRIZZLE   50  48  93 CALM      29.74S
GRAND MARAIS     N/A     53  47  79 NE6       29.77R
G MARAIS ARPRT DRIZZLE   50  43  76 E3        29.78S
$$
MNZ029>031-032-039>041-046>048-054>057-064-261200-
   West Central Minnesota

CITY           SKY/WX    TMP DP  RH WIND       PRES   REMARKS
FERGUS FALLS   CLOUDY    52  52 100 SW5       29.64R
WHEATON        CLOUDY    54  46  76 W8        29.68R
MORRIS         CLOUDY    50  50 100 SW5       29.65R FOG
ALEXANDRIA     CLOUDY    52  50  93 S3        29.66S
ELBOW LAKE     FAIR      50  50 100 W6        29.65R
WADENA         CLEAR     52  50  93 S3        29.64S
GLENWOOD       CLOUDY    52  48  87 S5        29.66F
APPLETON       PTCLDY    50  48  93 SW3       29.66R FOG
BENSON         CLOUDY    52  50  93 S5        29.67R
ORTONVILLE     CLOUDY    54  48  82 W7        29.66
MADISON        CLOUDY    55  54  94 W9        29.66R
WILLMAR        FAIR      54  52  94 SE3       29.67S
$$
MNZ033>034-036-042>043-049>051-058-059-261200-
   Central Minnesota

CITY           SKY/WX    TMP DP  RH WIND       PRES   REMARKS
ST CLOUD       CLOUDY    56  53  90 SE3       29.67R
SAUK CENTRE    FAIR      52  49  91 S5        29.66S
PAYNESVILLE    CLOUDY    54  51  90 CALM      29.67R
AITKIN         CLOUDY    54  50  87 CALM      29.66S
PINE RIVER     PTCLDY    52  52 100 CALM      29.70R
BRAINERD       PTCLDY    52  51  97 SE3       29.66S
STAPLES        PTCLDY    54  50  87 CALM      29.66R
LONG PRAIRIE   FAIR      50  48  93 SE5       29.66S
LITTLE FALLS   CLOUDY    54  50  87 SE3       29.67R
LITCHFIELD     CLEAR     57  54  88 CALM      29.68S
BUFFALO        CLOUDY    60  51  72 S3        29.69R
MAPLE LAKE     CLOUDY    59  54  82 CALM      29.68S
HUTCHINSON     CLEAR     57  53  86 CALM      29.69S
$$
MNZ037-044-045-052-053-261200-
   East Central Minnesota

CITY           SKY/WX    TMP DP  RH WIND       PRES   REMARKS
PRINCETON      CLOUDY    61  54  77 SE5       29.68S
MORA           CLOUDY    55  52  88 SE5       29.70S
CAMBRIDGE      CLOUDY    63  54  72 SE5       29.67S
RUSH CITY      CLOUDY    57  54  88 SE5       29.70S
MOOSE LAKE     CLOUDY    48  45  87 NE3       29.69F
HINCKLEY       CLOUDY    55  54  94 E3        29.69F
CLOQUET        CLOUDY    46  45  93 E5        29.72S
MCGREGOR       CLOUDY    52  50  93 E5        29.69R
$$
MNZ071>073-080-081-089-090-097-098-261200-
   Southwest Minnesota

CITY           SKY/WX    TMP DP  RH WIND       PRES   REMARKS
MONTEVIDEO     PTCLDY    52  50  93 SW7       29.66R
CANBY          MOCLDY    58  51  78 CALM      29.68R
MARSHALL       PTCLDY    53  49  86 W5        29.68R
REDWOOD FALLS  CLOUDY    53  49  86 S3        29.68R
OLIVIA         CLEAR     54  52  94 S6        29.67S
PIPESTONE      CLOUDY    52  46  82 CALM      29.70R
WINDOM         CLOUDY    55  52  88 CALM      29.70R
WORTHINGTON    CLOUDY    55  51  86 S6        29.70R
JACKSON        CLOUDY    55  52  88 CALM      29.70R
TRACY          CLOUDY    58  53  82 SW10      29.68S
SLAYTON        CLOUDY    54  50  88 S6        29.70S
$$
MNZ065>067-074>077-082>085-091>093-261200-
   South Central Minnesota

CITY           SKY/WX    TMP DP  RH WIND       PRES   REMARKS
MANKATO        CLOUDY    59  51  75 S7        29.70R
NEW ULM        CLOUDY    57  52  82 CALM      29.68S
ST JAMES       CLOUDY    59  54  82 S6        29.69S
FAIRMONT       CLOUDY    58  52  80 S7        29.70R
GLENCOE        CLOUDY    60  55  82 CALM      29.68R
FARIBAULT      CLOUDY    59  52  77 SE6       29.71S
OWATONNA       CLOUDY    59  50  72 SE8       29.71S
WASECA         CLOUDY    55  50  82 SE7       29.72R
ALBERT LEA     CLOUDY    57  52  82 S8        29.72R
$$
MNZ078>079-086>088-094>096-261200-
   Southeast Minnesota

CITY           SKY/WX    TMP DP  RH WIND       PRES   REMARKS
ROCHESTER      CLEAR     54  52  93 SE9       29.75R
RED WING       PTCLDY    61  52  72 SE7       29.72S
STANTON        CLOUDY    60  52  74 S7        29.70S
DODGE CENTER   CLOUDY    54  52  94 SE8       29.73S
WINONA         CLEAR     54  54 100 CALM      29.75S
AUSTIN         CLEAR     54  48  82 SE5       29.72S
PRESTON        CLEAR     54  50  86 S6        29.75S
$$
ABBREVIATIONS USED IN REMARKS
   TC - TEMPERATURES IN CELSIUS
  WCI - WIND CHILL INDEX
   HX - HEAT INDEX
  VSB - VISIBILITY
$$



USA.gov is the U.S. government's official web portal to all federal, state and local government web resources and services.